Flag for Thailand Weather past 2 weeks in Phuket, Thailand

Now
88 °F

Partly sunny.


Feels Like: 91 °F
Forecast: 79 / 89 °F
Wind: 8 mph from East

Location: Phuket Airport

Current Time: Jan 30, 2015 at 12:12:21 PM

Latest Report: Jan 30, 2015 at 11:30 AM


Visibility: N/A

Pressure: 29.95 "Hg

Humidity: 52%

Dew point: 68 °F

Location of PhuketLocation

Historic Weather in Phuket — Graph

°F

Phuket temperature yesterday

Maximum temperature yesterday: 90 °F (at 2:30 PM)
Minimum temperature yesterday: 72 °F (at 7:00 AM)
Average temperature yesterday: 81 °F

Past Weeks' High & Low Weather Summary

 TemperatureHumidityPressure
High91 °F (Jan 27, 1:00 PM)94% (Jan 23, 7:30 AM)30.07 "Hg (Jan 23, 7:30 AM)
Low72 °F (Jan 23, 6:30 AM)33% (Jan 25, 4:30 PM)29.80 "Hg (Jan 28, 3:00 PM)
Average81 °F68%29.91 "Hg
* Reported Jan 15 11:00 AM — Jan 30 11:00 AM, Phuket, Weather by CustomWeather, © 2014

Note: Actual official high and low records may vary slightly from our data, if they occured in-between our weather recording intervals... More about our weather records

Advertising

Phuket weather history for previous 24 hours

 ConditionsComfort  
Time TempWeatherWind HumidityBarometerVisibility
11:00 AM
Jan 30
86 °FPartly sunny.8 mph55%29.98 "HgN/A
10:30 AM84 °FPartly sunny.9 mph58%29.98 "HgN/A
9:30 AM82 °FScattered clouds.6 mph66%29.98 "HgN/A
9:00 AM82 °FScattered clouds.6 mph66%29.95 "HgN/A
8:30 AM81 °FScattered clouds.5 mph70%29.95 "HgN/A
8:00 AM79 °FScattered clouds.No wind74%29.92 "HgN/A
7:30 AM75 °FScattered clouds.3 mph83%29.92 "HgN/A
7:00 AM73 °FScattered clouds.3 mph89%29.89 "HgN/A
6:30 AM73 °FPassing clouds.No wind89%29.89 "HgN/A
6:00 AM73 °FPassing clouds.No wind83%29.89 "HgN/A
5:30 AM73 °FPassing clouds.No wind83%29.86 "HgN/A
5:00 AM73 °FPassing clouds.No wind83%29.86 "HgN/A
4:00 AM75 °FPassing clouds.3 mph83%29.86 "HgN/A
2:00 AM79 °FPassing clouds.6 mph70%29.86 "HgN/A
1:30 AM79 °FPassing clouds.6 mph70%29.89 "HgN/A
1:00 AM79 °FPassing clouds.9 mph70%29.89 "HgN/A
12:30 AM77 °FPassing clouds.6 mph79%29.89 "HgN/A
12:00 AM75 °FPassing clouds.No wind89%29.92 "HgN/A
11:30 PM
Jan 29
75 °FPassing clouds.No wind89%29.92 "HgN/A
11:00 PM75 °FPassing clouds.No wind89%29.92 "HgN/A
10:30 PM77 °FPassing clouds.No wind83%29.92 "HgN/A
10:00 PM79 °FPassing clouds.No wind79%29.92 "HgN/A
9:30 PM79 °FPassing clouds.No wind79%29.92 "HgN/A
9:00 PM79 °FPassing clouds.No wind79%29.89 "HgN/A
8:30 PM81 °FPassing clouds.No wind70%29.89 "HgN/A
8:00 PM81 °FPassing clouds.6 mph70%29.86 "Hg5 mi
7:30 PM82 °FPassing clouds.6 mph66%29.86 "Hg5 mi
7:00 PM82 °FPassing clouds.6 mph66%29.83 "Hg5 mi
6:30 PM82 °FScattered clouds.5 mph66%29.83 "Hg5 mi
6:00 PM84 °FScattered clouds.6 mph62%29.83 "Hg5 mi
5:30 PM88 °FScattered clouds.8 mph52%29.83 "Hg5 mi
5:00 PM90 °FScattered clouds.6 mph46%29.80 "Hg5 mi
4:30 PM90 °FScattered clouds.9 mph43%29.80 "Hg5 mi
4:00 PM90 °FScattered clouds.12 mph43%29.80 "Hg5 mi
3:30 PM90 °FScattered clouds.10 mph43%29.83 "Hg5 mi
3:00 PM90 °FScattered clouds.7 mph43%29.83 "Hg5 mi
2:30 PM90 °FScattered clouds.12 mph43%29.83 "Hg5 mi
2:00 PM88 °FScattered clouds.9 mph49%29.86 "Hg5 mi
1:30 PM88 °FScattered clouds.15 mph49%29.86 "Hg5 mi
1:00 PM86 °FScattered clouds.14 mph52%29.89 "Hg5 mi
12:30 PM86 °FScattered clouds.13 mph52%29.89 "Hg5 mi
12:00 PM86 °FScattered clouds.10 mph55%29.92 "Hg5 mi
Weather by CustomWeather, © 2014

See weather overviewHow to use our weather pages